Weather History for St. Paul, MN

Change the Weather History Date:

Tuesday, November 1, 2011

  Actual Average Record
Temperature  
Mean Temperature 49 °F -  
Max Temperature 54 °F 48 °F 80 °F (1999)
Min Temperature 44 °F 32 °F 21 °F (1996)
Degree Days  
Heating Degree Days 16    
Moisture  
Dew Point 34 °F    
Average Humidity 57    
Maximum Humidity 74    
Minimum Humidity 43    
Precipitation  
Precipitation 0.00 in - - ()
Sea Level Pressure  
Sea Level Pressure 29.94 in    
Wind  
Wind Speed 6 mph (SE)    
Max Wind Speed 14 mph    
Max Gust Speed 21 mph    
Visibility 10 miles    
Events      
Averages and records for this station are not official NWS values.
T = Trace of Precipitation, MM = Missing Value Source: NWS Daily Summary

Daily Weather History Graph

Daily Weather History Graph

Search for Another Location

Airport:

Trip Planner

Search our weather history database for the weather conditions in past years. The results will help you decide how hot, cold, wet, or windy it might be!

Date:

Astronomy

Nov. 01, 2011 Rise Set
Actual Time 7:50 AM CDT 6:00 PM CDT
Civil Twilight 7:19 AM CDT 6:31 PM CDT
Nautical Twilight 6:45 AM CDT 7:05 PM CDT
Astronomical Twilight 6:10 AM CDT 7:39 PM CDT
Moon 1:40 PM CDT (11/1) 11:42 PM CDT (11/1)
Length of Visible Light 11h 11m
Length of Day
10h 10m
Waxing Crescent, 40% of the Moon is Illuminated
Nov 1
Waxing Crescent
Nov 2
First Quarter
Nov 10
Full
Nov 18
Last Quarter
Nov 25
New

Hourly Weather History & Observations

Time (CDT) Temp. Windchill Dew Point Humidity Pressure Visibility Wind Dir Wind Speed Gust Speed Precip Events Conditions
12:53 AM 45.0 °F 40.6 °F 30.9 °F 58% 29.94 in 10.0 mi SSE 8.1 mph - N/A   Partly Cloudy
1:53 AM 46.4 °F 41.9 °F 30.2 °F 53% 29.93 in 10.0 mi SSE 9.2 mph - N/A   Overcast
2:53 AM 46.9 °F - 30.0 °F 52% 29.92 in 10.0 mi SE 8.1 mph - N/A   Overcast
3:53 AM 46.9 °F - 30.0 °F 52% 29.91 in 10.0 mi SE 10.4 mph - N/A   Overcast
4:53 AM 46.9 °F - 30.9 °F 54% 29.90 in 10.0 mi SE 5.8 mph - N/A   Mostly Cloudy
5:53 AM 46.0 °F 43.1 °F 30.9 °F 56% 29.91 in 10.0 mi SE 5.8 mph - N/A   Partly Cloudy
6:53 AM 46.0 °F 43.9 °F 30.9 °F 56% 29.89 in 10.0 mi SE 4.6 mph - N/A   Mostly Cloudy
7:53 AM 44.6 °F 42.2 °F 30.2 °F 57% 29.89 in 10.0 mi SSE 4.6 mph - N/A   Clear
8:53 AM 45.0 °F 43.5 °F 30.9 °F 58% 29.91 in 10.0 mi SSE 3.5 mph - N/A   Clear
9:53 AM 46.0 °F 43.1 °F 32.0 °F 58% 29.91 in 10.0 mi SSE 5.8 mph - N/A   Partly Cloudy
10:53 AM 46.9 °F - 30.9 °F 54% 29.91 in 10.0 mi South 4.6 mph - N/A   Scattered Clouds
11:53 AM 48.0 °F - 32.0 °F 54% 29.91 in 10.0 mi SE 3.5 mph - N/A   Mostly Cloudy
12:53 PM 50.0 °F - 32.0 °F 50% 29.91 in 10.0 mi Variable 3.5 mph - N/A   Scattered Clouds
1:53 PM 52.0 °F - 32.0 °F 47% 29.90 in 10.0 mi NNW 3.5 mph - N/A   Mostly Cloudy
2:53 PM 53.1 °F - 32.0 °F 45% 29.90 in 10.0 mi Calm Calm - N/A   Clear
3:53 PM 54.0 °F - 32.0 °F 43% 29.93 in 10.0 mi Calm Calm - N/A   Mostly Cloudy
4:53 PM 52.0 °F - 35.1 °F 53% 29.94 in 10.0 mi SSE 4.6 mph - N/A   Overcast
5:53 PM 51.1 °F - 39.0 °F 63% 29.96 in 10.0 mi Calm Calm - 0.00 in   Overcast
6:53 PM 48.9 °F - 39.9 °F 71% 29.99 in 10.0 mi Calm Calm - 0.00 in   Overcast
7:53 PM 48.9 °F - 39.9 °F 71% 30.01 in 10.0 mi Calm Calm - 0.00 in   Mostly Cloudy
8:53 PM 48.9 °F - 41.0 °F 74% 30.01 in 10.0 mi NNW 11.5 mph - 0.00 in   Overcast
9:53 PM 48.9 °F - 39.0 °F 69% 30.02 in 10.0 mi NNW 13.8 mph - N/A   Overcast
10:53 PM 48.2 °F - 37.4 °F 66% 30.03 in 10.0 mi North 12.7 mph 20.7 mph N/A   Overcast
11:53 PM 48.0 °F - 36.0 °F 63% 30.05 in 10.0 mi North 8.1 mph - N/A   Overcast